• In Belarus
  • List of Countries
  • For 7 days
  • Water Temperature
  • Satellite Maps
  • Weather Map
  • Weather Widgets
  • user-avatar
    Login

    Hourly Weather Viseu

    Today, 18 June, Monday

    Time Temperature Precipitation Wind Pressure Humidity
    00:00 +19°C° 0 mm 2 mps 725 mmHg 61%
    01:00 +19°C° 0 mm 2 mps 725 mmHg 61%
    02:00 +19°C° 0 mm 3 mps 724 mmHg 62%
    03:00 +18°C° 0 mm 3 mps 724 mmHg 63%
    04:00 +18°C° 0 mm 3 mps 724 mmHg 64%
    05:00 +18°C° 0 mm 3 mps 724 mmHg 65%
    06:00 +20°C° 0 mm 3 mps 725 mmHg 58%
    07:00 +24°C° 0 mm 3 mps 725 mmHg 51%
    08:00 +26°C° 0 mm 4 mps 725 mmHg 44%
    09:00 +28°C° 0 mm 4 mps 725 mmHg 40%
    10:00 +30°C° 0 mm 4 mps 725 mmHg 36%
    11:00 +32°C° 0 mm 4 mps 725 mmHg 32%
    12:00 +33°C° 0 mm 4 mps 725 mmHg 31%
    13:00 +33°C° 0 mm 4 mps 724 mmHg 31%
    14:00 +34°C° 0 mm 4 mps 724 mmHg 30%
    15:00 +33°C° 0 mm 3 mps 723 mmHg 33%
    16:00 +31°C° 0 mm 3 mps 723 mmHg 37%
    17:00 +30°C° 0 mm 3 mps 723 mmHg 40%
    18:00 +29°C° 0 mm 3 mps 722 mmHg 43%
    19:00 +27°C° 0 mm 3 mps 722 mmHg 47%
    20:00 +25°C° 0 mm 3 mps 722 mmHg 50%
    21:00 +24°C° 0 mm 3 mps 722 mmHg 53%
    22:00 +22°C° 0 mm 3 mps 722 mmHg 55%
    23:00 +22°C° 0 mm 3 mps 723 mmHg 58%

    Tomorrow, 19 June, Tuesday

    Time Temperature Precipitation Wind Pressure Humidity
    00:00 +21°C° 0 mm 3 mps 722 mmHg 59%
    01:00 +21°C° 0 mm 3 mps 722 mmHg 61%
    02:00 +20°C° 0 mm 4 mps 722 mmHg 62%
    03:00 +20°C° 0 mm 4 mps 722 mmHg 64%
    04:00 +19°C° 0 mm 4 mps 722 mmHg 66%
    05:00 +19°C° 0 mm 3 mps 722 mmHg 68%
    06:00 +21°C° 0 mm 3 mps 722 mmHg 62%
    07:00 +24°C° 0 mm 3 mps 723 mmHg 57%
    08:00 +26°C° 0 mm 3 mps 723 mmHg 51%
    09:00 +28°C° 0 mm 3 mps 723 mmHg 46%
    10:00 +30°C° 0 mm 2 mps 723 mmHg 41%
    11:00 +32°C° 0 mm 2 mps 723 mmHg 36%
    12:00 +34°C° 0 mm 2 mps 723 mmHg 34%
    13:00 +35°C° 0 mm 2 mps 722 mmHg 33%
    14:00 +35°C° 0 mm 2 mps 722 mmHg 31%
    15:00 +34°C° 0 mm 2 mps 722 mmHg 35%
    16:00 +32°C° 0 mm 2 mps 721 mmHg 38%
    17:00 +31°C° 0 mm 2 mps 721 mmHg 42%
    18:00 +29°C° 0 mm 2 mps 721 mmHg 49%
    19:00 +26°C° 0 mm 1 mps 721 mmHg 56%
    20:00 +24°C° 0 mm 1 mps 721 mmHg 63%
    21:00 +23°C° 0.1 mm 1 mps 721 mmHg 65%
    22:00 +22°C° 0.1 mm 1 mps 721 mmHg 67%
    23:00 +22°C° 0.1 mm 1 mps 721 mmHg 70%

    Day after tomorrow, 20 June, Wednesday

    Time Temperature Precipitation Wind Pressure Humidity
    00:00 +22°C° 0.2 mm 1 mps 721 mmHg 70%
    01:00 +21°C° 0.2 mm 1 mps 721 mmHg 71%
    02:00 +21°C° 0.2 mm 1 mps 721 mmHg 71%
    03:00 +21°C° 0 mm 1 mps 721 mmHg 71%
    04:00 +21°C° 0 mm 1 mps 721 mmHg 71%
    05:00 +21°C° 0 mm 1 mps 721 mmHg 70%
    06:00 +24°C° 0.3 mm 1 mps 721 mmHg 64%
    07:00 +26°C° 0.3 mm 2 mps 721 mmHg 59%
    08:00 +28°C° 0.3 mm 2 mps 722 mmHg 53%
    09:00 +30°C° 0.1 mm 2 mps 722 mmHg 48%
    10:00 +31°C° 0.1 mm 1 mps 722 mmHg 44%
    11:00 +33°C° 0.1 mm 1 mps 722 mmHg 39%
    12:00 +33°C° 0.2 mm 1 mps 722 mmHg 39%
    13:00 +34°C° 0.2 mm 2 mps 722 mmHg 38%
    14:00 +34°C° 0.2 mm 2 mps 721 mmHg 37%
    15:00 +31°C° 0.3 mm 2 mps 721 mmHg 46%
    16:00 +29°C° 0.3 mm 2 mps 721 mmHg 54%
    17:00 +27°C° 0.3 mm 2 mps 721 mmHg 62%
    18:00 +25°C° 0.4 mm 2 mps 721 mmHg 69%
    19:00 +24°C° 0.4 mm 2 mps 721 mmHg 75%
    20:00 +21°C° 0.4 mm 2 mps 721 mmHg 81%
    21:00 +21°C° 0.5 mm 2 mps 721 mmHg 81%
    22:00 +21°C° 0.5 mm 2 mps 721 mmHg 81%
    23:00 +21°C° 0.5 mm 2 mps 721 mmHg 81%

    21 June, Thursday

    Time Temperature Precipitation Wind Pressure Humidity
    00:00 +21°C° 0.2 mm 2 mps 721 mmHg 81%
    01:00 +21°C° 0.2 mm 2 mps 720 mmHg 80%
    02:00 +20°C° 0.2 mm 2 mps 720 mmHg 80%
    03:00 +20°C° 0.1 mm 2 mps 720 mmHg 80%
    04:00 +21°C° 0.1 mm 1 mps 720 mmHg 80%
    05:00 +21°C° 0.1 mm 1 mps 720 mmHg 81%
    06:00 +23°C° 0 mm 1 mps 721 mmHg 74%
    07:00 +25°C° 0 mm 1 mps 721 mmHg 67%
    08:00 +27°C° 0 mm 1 mps 722 mmHg 60%
    09:00 +28°C° 0.1 mm 1 mps 722 mmHg 57%
    10:00 +29°C° 0.1 mm 1 mps 722 mmHg 53%
    11:00 +30°C° 0.1 mm 2 mps 722 mmHg 50%
    12:00 +29°C° 0.7 mm 2 mps 721 mmHg 51%
    13:00 +29°C° 0.7 mm 2 mps 721 mmHg 53%
    14:00 +28°C° 0.7 mm 2 mps 721 mmHg 55%
    15:00 +28°C° 0.2 mm 2 mps 721 mmHg 56%
    16:00 +27°C° 0.2 mm 1 mps 721 mmHg 57%
    17:00 +27°C° 0.2 mm 1 mps 721 mmHg 58%
    18:00 +25°C° 0 mm 1 mps 721 mmHg 62%
    19:00 +24°C° 0 mm 1 mps 721 mmHg 67%
    20:00 +22°C° 0 mm 1 mps 721 mmHg 72%
    21:00 +22°C° 0.1 mm 1 mps 721 mmHg 73%
    22:00 +21°C° 0.1 mm 1 mps 721 mmHg 74%
    23:00 +21°C° 0.1 mm 1 mps 721 mmHg 75%

    22 June, Friday

    Time Temperature Precipitation Wind Pressure Humidity
    00:00 +21°C° 0 mm 1 mps 720 mmHg 75%
    01:00 +20°C° 0 mm 1 mps 720 mmHg 76%
    02:00 +20°C° 0 mm 1 mps 720 mmHg 76%
    03:00 +20°C° 0 mm 1 mps 720 mmHg 78%
    04:00 +20°C° 0 mm 1 mps 720 mmHg 80%
    05:00 +20°C° 0 mm 1 mps 720 mmHg 82%
    06:00 +23°C° 0 mm 1 mps 721 mmHg 74%
    07:00 +25°C° 0 mm 1 mps 721 mmHg 65%
    08:00 +28°C° 0 mm 1 mps 721 mmHg 57%
    09:00 +29°C° 0.2 mm 1 mps 721 mmHg 52%
    10:00 +31°C° 0.2 mm 1 mps 721 mmHg 46%
    11:00 +33°C° 0.2 mm 1 mps 722 mmHg 40%
    12:00 +32°C° 0 mm 1 mps 721 mmHg 42%
    13:00 +31°C° 0 mm 1 mps 721 mmHg 43%
    14:00 +30°C° 0 mm 2 mps 720 mmHg 45%
    15:00 +30°C° 0 mm 2 mps 720 mmHg 46%
    16:00 +30°C° 0 mm 2 mps 720 mmHg 47%
    17:00 +30°C° 0 mm 1 mps 720 mmHg 49%
    18:00 +28°C° 0 mm 1 mps 720 mmHg 57%
    19:00 +25°C° 0 mm 1 mps 720 mmHg 65%
    20:00 +23°C° 0 mm 1 mps 720 mmHg 73%
    21:00 +23°C° 0.2 mm 1 mps 720 mmHg 76%
    22:00 +22°C° 0.2 mm 1 mps 720 mmHg 79%
    23:00 +22°C° 0.2 mm 1 mps 720 mmHg 82%

    23 June, Saturday

    Time Temperature Precipitation Wind Pressure Humidity
    00:00 +20°C° 0 mm 2 mps 720 mmHg 83%
    01:00 +20°C° 0 mm 2 mps 719 mmHg 84%
    02:00 +20°C° 0 mm 2 mps 719 mmHg 84%
    03:00 +20°C° 0 mm 2 mps 719 mmHg 84%
    04:00 +20°C° 0 mm 2 mps 719 mmHg 84%
    05:00 +20°C° 0 mm 2 mps 720 mmHg 84%
    06:00 +23°C° 0 mm 2 mps 720 mmHg 75%
    07:00 +25°C° 0 mm 2 mps 720 mmHg 67%
    08:00 +27°C° 0 mm 2 mps 720 mmHg 58%
    09:00 +29°C° 0 mm 2 mps 720 mmHg 52%
    10:00 +31°C° 0 mm 2 mps 720 mmHg 45%
    11:00 +34°C° 0 mm 2 mps 720 mmHg 38%
    12:00 +34°C° 0.2 mm 2 mps 720 mmHg 40%
    13:00 +33°C° 0.2 mm 3 mps 719 mmHg 42%
    14:00 +33°C° 0.2 mm 3 mps 719 mmHg 43%
    15:00 +31°C° 0.4 mm 2 mps 719 mmHg 48%
    16:00 +30°C° 0.4 mm 2 mps 718 mmHg 52%
    17:00 +29°C° 0.4 mm 2 mps 718 mmHg 57%
    18:00 +27°C° 0.3 mm 2 mps 718 mmHg 65%
    19:00 +25°C° 0.3 mm 1 mps 718 mmHg 74%
    20:00 +23°C° 0.3 mm 1 mps 719 mmHg 82%
    21:00 +22°C° 0.1 mm 1 mps 719 mmHg 84%
    22:00 +22°C° 0.1 mm 1 mps 719 mmHg 87%
    23:00 +21°C° 0.1 mm 1 mps 719 mmHg 89%
    Show more